E20HHK

Lookups:   837
| Bureau | Direct | LoTW | eQSL
Name:Kriangkrai
QTH:Bangkok 10903
Country:Thailand
Grid:OK03GU
 
Web:
Email:
Hidden
Hidden
Hidden
Thailand
 
  
  
ITU: 49
CQ:26
 
  
  
   
QSL via:


Source Activity Date time
RBN DX de 9M2CNC-#: 14016.6 E20HHK CW 2 dB 28 WPM CQ 1305Z 2017-12-18 13:05:23
DXC DX de IN3XSV: 14016.5 E20HHK 1305Z 2017-12-18 13:05:00
RBN DX de HB9JCB-#: 14016.5 E20HHK CW 9 dB 27 WPM CQ 1301Z 2017-12-18 13:01:15
RBN DX de PJ2A-#: 14016.4 E20HHK CW 12 dB 28 WPM CQ 1301Z 2017-12-18 13:01:05
RBN DX de S50ARX-#: 14016.5 E20HHK CW 10 dB 28 WPM CQ 1301Z 2017-12-18 13:01:03
RBN DX de DL1RNN-#: 14016.5 E20HHK CW 8 dB 28 WPM CQ 1301Z 2017-12-18 13:01:03
RBN DX de BI4SSB-#: 14016.4 E20HHK CW 8 dB 28 WPM CQ 1301Z 2017-12-18 13:01:03
RBN DX de GW8IZR-#: 14016.5 E20HHK CW 14 dB 28 WPM CQ 1301Z 2017-12-18 13:01:01
RBN DX de UD4FD-#: 14016.40 E20HHK CW 8 dB 28 WPM CQ 1301Z 2017-12-18 13:01:00
RBN DX de DL9GTB-#: 14016.5 E20HHK CW 10 dB 28 WPM CQ 1300Z 2017-12-18 13:00:48
RBN DX de G0LUJ-#: 14016.5 E20HHK CW 10 dB 28 WPM CQ 1300Z 2017-12-18 13:00:48
RBN DX de R6YY-#: 14016.5 E20HHK CW 12 dB 28 WPM CQ 1300Z 2017-12-18 13:00:46
RBN DX de HB9DCO-#: 14016.4 E20HHK CW 10 dB 28 WPM CQ 1300Z 2017-12-18 13:00:45
RBN DX de BI4SCC-#: 14016.4 E20HHK CW 12 dB 27 WPM CQ 1300Z 2017-12-18 13:00:45
RBN DX de HB9DCO-#: 14016.5 E20HHK CW 13 dB 28 WPM CQ 1300Z 2017-12-18 13:00:44
RBN DX de 9A1CIG-#: 14016.60 E20HHK CW 9 dB 28 WPM CQ 1300Z 2017-12-18 13:00:43
RBN DX de LZ7AA-#: 14016.5 E20HHK CW 16 dB 28 WPM CQ 1300Z 2017-12-18 13:00:43
RBN DX de DL0WX-#: 14016.4 E20HHK CW 17 dB 28 WPM CQ 1300Z 2017-12-18 13:00:29
RBN DX de VK4CT-#: 14016.5 E20HHK CW 38 dB 28 WPM CQ 1300Z 2017-12-18 13:00:28
RBN DX de VU2PTT-#: 14016.4 E20HHK CW 32 dB 28 WPM CQ 1300Z 2017-12-18 13:00:28
RBN DX de SV1CDN-#: 14016.6 E20HHK CW 22 dB 27 WPM CQ 1300Z 2017-12-18 13:00:27
RBN DX de 3B8CW-#: 14016.5 E20HHK CW 33 dB 28 WPM CQ 1300Z 2017-12-18 13:00:27
RBN DX de DO4DXA-#: 14016.5 E20HHK CW 16 dB 28 WPM CQ 1300Z 2017-12-18 13:00:26
RBN DX de HA6PX-#: 14016.4 E20HHK CW 22 dB 28 WPM CQ 1300Z 2017-12-18 13:00:25
RBN DX de BG7IBS-#: 14016.4 E20HHK CW 6 dB 28 WPM CQ 1300Z 2017-12-18 13:00:25
RBN DX de HB9BXE-#: 14016.5 E20HHK CW 17 dB 28 WPM CQ 1300Z 2017-12-18 13:00:25
RBN DX de DJ9IE-#: 14016.5 E20HHK CW 17 dB 28 WPM CQ 1300Z 2017-12-18 13:00:24
RBN DX de IK3STG-#: 14016.4 E20HHK CW 25 dB 28 WPM CQ 1300Z 2017-12-18 13:00:24
RBN DX de HA1VHF-#: 14016.5 E20HHK CW 20 dB 28 WPM CQ 1300Z 2017-12-18 13:00:24
RBN DX de VU3KAZ-#: 14016.5 E20HHK CW 36 dB 28 WPM CQ 1300Z 2017-12-18 13:00:24
RBN DX de F5RRS-#: 14016.6 E20HHK CW 16 dB 28 WPM CQ 1300Z 2017-12-18 13:00:24
DXC DX de E20HHK: 10113.0 OJ9X tks qso 1235Z 2017-12-18 12:35:00
DXC DX de E20HHK: 14188.0 OZ6CM tks Carsten for qso 1230Z 2017-12-18 12:30:00
DXC DX de OZ6CM: 14188.0 E20HHK 1228Z 2017-12-18 12:28:00
DXC DX de E20HHK: 14022.0 OJ9X cq loud tks qso 1212Z 2017-12-18 12:12:00
DXC DX de E20HHK: 14026.5 IP0TRC gud sig 1209Z 2017-12-18 12:09:00
DXC DX de E20HHK: 18140.0 OJ9X gud sig in hs tks qso 0758Z 2017-12-18 07:58:00
DXC DX de VR2YAK: 14021.5 E20HHK CQ Big Signal. Tks es 73 0813Z 2017-12-14 08:13:00
RBN DX de VK4CT-#: 14021.7 E20HHK CW 23 dB 28 WPM CQ 0811Z 2017-12-14 08:11:46
RBN DX de 9M2CNC-#: 14021.8 E20HHK CW 11 dB 28 WPM CQ 0811Z 2017-12-14 08:11:45
RBN DX de VU2PTT-#: 14021.6 E20HHK CW 22 dB 28 WPM CQ 0811Z 2017-12-14 08:11:41
RBN DX de JA4ZRK-#: 14069.3 E20HHK CW 5 dB 28 WPM CQ 0811Z 2017-12-14 08:11:13
RBN DX de BD7JNA-#: 14021.70 E20HHK CW 20 dB 28 WPM CQ 0811Z 2017-12-14 08:11:12
RBN DX de 9V1RM-#: 14021.7 E20HHK CW 14 dB 28 WPM CQ 0811Z 2017-12-14 08:11:10
RBN DX de BI4SSB-#: 14021.6 E20HHK CW 18 dB 28 WPM CQ 0811Z 2017-12-14 08:11:09
RBN DX de VU3KAZ-#: 14021.7 E20HHK CW 23 dB 28 WPM CQ 0811Z 2017-12-14 08:11:08
DXC DX de JA1NOJ: 14021.7 E20HHK 0805Z 2017-12-14 08:05:00
RBN DX de BG7IBS-#: 14021.6 E20HHK CW 50 dB 28 WPM CQ 0802Z 2017-12-14 08:02:50
RBN DX de BD7LLL-#: 14021.7 E20HHK CW 28 dB 28 WPM CQ 0802Z 2017-12-14 08:02:45
RBN DX de JA4ZRK-#: 14021.7 E20HHK CW 10 dB 28 WPM CQ 0802Z 2017-12-14 08:02:42
RBN DX de JJ2VLY-#: 14021.60 E20HHK CW 9 dB 28 WPM CQ 0802Z 2017-12-14 08:02:26
RBN DX de BI4SCC-#: 14021.6 E20HHK CW 19 dB 28 WPM CQ 0802Z 2017-12-14 08:02:23
RBN DX de BG8NUD-#: 14021.7 E20HHK CW 21 dB 28 WPM CQ 0802Z 2017-12-14 08:02:22
RBN DX de BI4SSB-#: 14021.6 E20HHK CW 11 dB 29 WPM CQ 0801Z 2017-12-14 08:01:08
RBN DX de VU3KAZ-#: 14021.7 E20HHK CW 31 dB 30 WPM CQ 0801Z 2017-12-14 08:01:08
RBN DX de VK4CT-#: 14021.7 E20HHK CW 20 dB 29 WPM CQ 0801Z 2017-12-14 08:01:07
RBN DX de BD7JNA-#: 14021.70 E20HHK CW 9 dB 30 WPM CQ 0801Z 2017-12-14 08:01:06
RBN DX de VU2PTT-#: 14021.6 E20HHK CW 36 dB 29 WPM CQ 0801Z 2017-12-14 08:01:05
RBN DX de 9V1RM-#: 14021.7 E20HHK CW 17 dB 30 WPM CQ 0801Z 2017-12-14 08:01:05
DXC DX de E20HHK: 18130.0 A41NN tks qso Mohammed 1139Z 2017-12-02 11:39:00
DXC DX de E20HHK: 14225.0 9M4IOTA big sig tks qso 0921Z 2017-12-02 09:21:00
DXC DX de E20HHK: 14260.0 E51JD tks nice qso Jim 0556Z 2017-12-01 05:56:00
DXC DX de E20HHK: 18077.4 7Q7AB cq simplex tks qso 1358Z 2017-11-28 13:58:00
DXC DX de E20HHK: 18140.0 ZS6LH tks qso gud sig hr 1342Z 2017-11-27 13:42:00
RBN DX de SM6FMB-#: 14037.0 E20HHK CW 35 dB 28 WPM CQ 1143Z 2017-11-26 11:43:01
RBN DX de BD7JNA-#: 28031.8 E20HHK CW 13 dB 31 WPM CQ 0938Z 2017-11-26 09:38:21
RBN DX de BG8FT-#: 28031.8 E20HHK CW 14 dB 32 WPM CQ 0938Z 2017-11-26 09:38:21
RBN DX de VU3KAZ-#: 28031.8 E20HHK CW 8 dB 31 WPM CQ 0938Z 2017-11-26 09:38:20
DXC DX de E20HHK: 7015.8 JT1CD/0 ww 2326Z 2017-11-25 23:26:00
DXC DX de E20HHK: 14021.0 TF2IM tks qso 1219Z 2017-11-24 12:19:00
DXC DX de E20HHK: 21025.0 EA8/RA5A gud speed cw tks qso 1243Z 2017-11-22 12:43:00
DXC DX de E20HHK: 14011.0 TK/S53ZO tks qso 5nn es qsb 0610Z 2017-11-22 06:10:00
RBN DX de BD7JNA-#: 18075.5 E20HHK CW 2 dB 29 WPM CQ 0643Z 2017-11-20 06:43:54
RBN DX de SK3W-#: 18075.6 E20HHK CW 9 dB 30 WPM CQ 0640Z 2017-11-20 06:40:02
RBN DX de BD7LLL-#: 18075.7 E20HHK CW 4 dB 30 WPM CQ 0639Z 2017-11-20 06:39:45
RBN DX de VU2PTT-#: 18075.6 E20HHK CW 24 dB 29 WPM CQ 0638Z 2017-11-20 06:38:56
RBN DX de BG8NUD-#: 18070.0 E20HHK CW 12 dB 30 WPM CQ 0509Z 2017-11-19 05:09:16
RBN DX de VU2PTT-#: 18069.9 E20HHK CW 12 dB 29 WPM CQ 0509Z 2017-11-19 05:09:02
RBN DX de VU3KAZ-#: 18070.0 E20HHK CW 12 dB 29 WPM CQ 0508Z 2017-11-19 05:08:52
DXC DX de E20HHK: 21285.0 ZS2HR gud sig tks qso 1259Z 2017-11-18 12:59:00
DXC DX de E20HHK: 18117.5 H44MS big sig tks qso 0922Z 2017-11-18 09:22:00
RBN DX de VU2PTT-#: 18077.9 E20HHK CW 23 dB 24 WPM CQ 0839Z 2017-11-18 08:39:45
RBN DX de BG7IBS-#: 14035.1 E20HHK CW 31 dB 28 WPM CQ 0747Z 2017-11-17 07:47:12
RBN DX de UD4FD-#: 14012.50 E20HHK CW 29 dB 26 WPM CQ 1236Z 2017-11-15 12:36:18
RBN DX de VK4CT-#: 14029.0 E20HHK CW 36 dB 30 WPM CQ 1403Z 2017-11-14 14:03:48
RBN DX de 3B8CW-#: 14045.0 E20HHK CW 26 dB 28 WPM CQ 1525Z 2017-11-13 15:25:48
DXC DX de E20HHK: 14182.0 CP5HK tks qso agustin 1121Z 2017-11-08 11:21:00
RBN DX de BG8NUD-#: 24906.0 E20HHK CW 22 dB 27 WPM CQ 0545Z 2017-11-08 05:45:47
DXC DX de E20HHK: 21285.0 4W/OZ1AA gd sig tks qso 0906Z 2017-11-07 09:06:00
DXC DX de E20HHK: 10103.0 4W/OZ1AA up big sig 1448Z 2017-11-06 14:48:00
DXC DX de E20HHK: 7016.4 VK9CZ CQ UP BIG SIG 1336Z 2017-11-06 13:36:00
DXC DX de E20HHK: 14285.0 4W/OZ1AA up 5 gd sig tks qso 1300Z 2017-11-06 13:00:00
DXC DX de E20HHK: 21057.0 4W/OZ1AA cq gd sig no taker 0934Z 2017-11-05 09:34:00
DXC DX de E20HHK: 18086.0 VK9/M0VFC cq up tks qso 0104Z 2017-11-05 01:04:00
DXC DX de E20HHK: 10110.0 4W/OZ1AA up tks qso 1321Z 2017-11-04 13:21:00
DXC DX de E20HHK: 21001.0 PJ4/K2NG up tks qso 1259Z 2017-11-04 12:59:00
DXC DX de E20HHK: 14001.0 PJ4/K2NG lp UP TKS QSO 1249Z 2017-11-04 12:49:00
RBN DX de K3LR-#: 14032.0 E20HHK CW 6 dB 29 WPM CQ 1703Z 2017-11-03 17:03:41
RBN DX de BG4GOV-#: 14032.00 E20HHK CW 11 dB 29 WPM CQ 1703Z 2017-11-03 17:03:18
RBN DX de 9V1RM-#: 14032.0 E20HHK CW 10 dB 29 WPM CQ 1703Z 2017-11-03 17:03:06
RBN DX de VK4CT-#: 14032.0 E20HHK CW 18 dB 29 WPM CQ 1702Z 2017-11-03 17:02:59
RBN DX de VU2PTT-#: 14031.9 E20HHK CW 23 dB 29 WPM CQ 1702Z 2017-11-03 17:02:47
RBN DX de JE1SGH-#: 14031.2 E20HHK CW 13 dB 30 WPM CQ 0842Z 2017-11-03 08:42:59
DXC DX de E20HHK: 18075.0 4S7AYG gd sig tks qso 0246Z 2017-10-31 02:46:00
DXC DX de E20HHK: 10110.0 4S7AYG cq up tks qso 0154Z 2017-10-31 01:54:00
DXC DX de E20HHK: 21295.0 E44WE tks qso 0824Z 2017-10-30 08:24:00
RBN DX de HA1VHF-#: 14032.2 E20HHK CW 10 dB 30 WPM CQ 0028Z 2017-10-29 00:28:04
RBN DX de JO1YYP-#: 14032.2 E20HHK CW 11 dB 29 WPM CQ 0027Z 2017-10-29 00:27:58
RBN DX de 9V1RM-#: 14032.4 E20HHK CW 5 dB 29 WPM CQ 0027Z 2017-10-29 00:27:58
RBN DX de BD2RJ-#: 14032.1 E20HHK CW 12 dB 29 WPM CQ 0027Z 2017-10-29 00:27:56
RBN DX de JA4ZRK-#: 14032.2 E20HHK CW 7 dB 30 WPM CQ 0027Z 2017-10-29 00:27:43
RBN DX de JO1YYP-#: 14032.2 E20HHK CW 15 dB 30 WPM CQ 0027Z 2017-10-29 00:27:42
RBN DX de VK4CT-#: 14032.2 E20HHK CW 28 dB 30 WPM CQ 0027Z 2017-10-29 00:27:41
RBN DX de RU9CZD-#: 14032.2 E20HHK CW 17 dB 29 WPM CQ 0027Z 2017-10-29 00:27:40
RBN DX de JE1SGH-#: 14032.2 E20HHK CW 9 dB 29 WPM CQ 0027Z 2017-10-29 00:27:38
RBN DX de 9M2CNC-#: 14032.3 E20HHK CW 6 dB 29 WPM CQ 0027Z 2017-10-29 00:27:32
RBN DX de 9V1RM-#: 14032.2 E20HHK CW 19 dB 29 WPM CQ 0027Z 2017-10-29 00:27:28
DXC DX de E20HHK: 28509.0 D41CV big sig tks qso 1254Z 2017-10-27 12:54:00
DXC DX de E20HHK: 14020.5 KH0/OH1JD tks qso 0324Z 2017-10-27 03:24:00
RBN DX de JO1YYP-#: 14018.0 E20HHK CW 15 dB 29 WPM CQ 0209Z 2017-10-27 02:09:54
DXC DX de E20HHK: 28440.0 VK9VKL CQ DX 1443Z 2017-10-26 14:43:00
RBN DX de JE1SGH-#: 14002.1 E20HHK CW 11 dB 34 WPM CQ 1249Z 2017-10-26 12:49:04
DXC DX de E20HHK: 21260.0 SV9ANK Nice sig Nikos tks qso 1319Z 2017-10-25 13:19:00
DXC DX de E20HHK: 24897.0 3B8DB tks qso 1325Z 2017-10-24 13:25:00
DXC DX de E20HHK: 21260.0 CX7SS Big sig tks qso 1310Z 2017-10-24 13:10:00
RBN DX de 9M2CNC-#: 18076.3 E20HHK CW 15 dB 29 WPM CQ 1410Z 2017-10-22 14:10:18
RBN DX de VU3KAZ-#: 18076.2 E20HHK CW 8 dB 30 WPM CQ 1409Z 2017-10-22 14:09:52
DXC DX de E20HHK: 21220.0 3B8/IW2NEF tks qso cio 1105Z 2017-10-22 11:05:00
DXC DX de E20HHK: 28500.0 3B8/IW2NEF Big sig tks qso 1053Z 2017-10-22 10:53:00
DXC DX de E20HHK: 28480.0 SV9ANK Nice qso Nikos GL 1001Z 2017-10-22 10:01:00
DXC DX de R6FY: 21021.2 E20HHK 1033Z 2017-10-20 10:33:00
RBN DX de 3B8CW-#: 21021.2 E20HHK CW 9 dB 29 WPM CQ 1026Z 2017-10-20 10:26:38
RBN DX de ES5PC-#: 21021.1 E20HHK CW 21 dB 29 WPM CQ 1026Z 2017-10-20 10:26:34
RBN DX de VU2PTT-#: 21021.1 E20HHK CW 16 dB 30 WPM CQ 1026Z 2017-10-20 10:26:28
RBN DX de SK3W-#: 21021.2 E20HHK CW 19 dB 29 WPM CQ 1026Z 2017-10-20 10:26:24
RBN DX de BD7IS-#: 21021.3 E20HHK CW 12 dB 29 WPM CQ 1025Z 2017-10-20 10:25:56
RBN DX de 5B4AGN-#: 21021.2 E20HHK CW 15 dB 29 WPM CQ 1025Z 2017-10-20 10:25:53
RBN DX de UA6SWL-#: 21021.2 E20HHK CW 6 dB 30 WPM CQ 1025Z 2017-10-20 10:25:52
RBN DX de BD7LLL-#: 21021.2 E20HHK CW 6 dB 29 WPM CQ 1025Z 2017-10-20 10:25:52
RBN DX de SE5E-#: 21021.2 E20HHK CW 8 dB 30 WPM CQ 1025Z 2017-10-20 10:25:52
RBN DX de UD4FD-#: 21021.10 E20HHK CW 19 dB 30 WPM CQ 1025Z 2017-10-20 10:25:51
RBN DX de SJ2W-#: 21021.2 E20HHK CW 12 dB 29 WPM CQ 1025Z 2017-10-20 10:25:49
DXC DX de E20HHK: 18135.0 JD1BMT tks Masa san fer qso 0402Z 2017-10-20 04:02:00
RBN DX de 9M2CNC-#: 10107.3 E20HHK CW 4 dB 32 WPM CQ 1040Z 2017-10-18 10:40:40
RBN DX de BG8NUD-#: 10107.4 E20HHK CW 4 dB 32 WPM CQ 1039Z 2017-10-18 10:39:06
RBN DX de 9V1RM-#: 10107.2 E20HHK CW 5 dB 32 WPM CQ 1038Z 2017-10-18 10:38:39
RBN DX de VU2PTT-#: 10107.1 E20HHK CW 8 dB 32 WPM CQ 1038Z 2017-10-18 10:38:29
RBN DX de VU2PTT-#: 18095.9 E20HHK CW 2 dB 31 WPM CQ 1034Z 2017-10-18 10:34:44
DXC DX de BV5OQ: 21040.0 E20HHK QSY 1008Z 2017-10-12 10:08:00
DXC DX de E20HHK: 21250.0 OD5ET tks nice shor qso gl Joet 0741Z 2017-10-12 07:41:00
RBN DX de OH6BG-#: 18090.1 E20HHK CW 4 dB 32 WPM CQ 0517Z 2017-10-10 05:17:59
RBN DX de VU2PTT-#: 18089.9 E20HHK CW 12 dB 32 WPM CQ 0517Z 2017-10-10 05:17:48
RBN DX de JO1YYP-#: 18090.0 E20HHK CW 9 dB 32 WPM CQ 0517Z 2017-10-10 05:17:46
RBN DX de V51YJ-#: 24902.8 E20HHK CW 9 dB 31 WPM CQ 1628Z 2017-10-09 16:28:40
RBN DX de VU2PTT-#: 24893.1 E20HHK CW 14 dB 31 WPM CQ 1202Z 2017-10-06 12:02:32
RBN DX de VU2PTT-#: 24893.1 E20HHK CW 10 dB 31 WPM CQ 1158Z 2017-10-06 11:58:17
DXC DX de E20HHK: 21315.0 HZ1TT tks qso Ali 1148Z 2017-10-06 11:48:00
DXC DX de E20HHK: 24955.0 A92AA Nice sig tks qso 0917Z 2017-10-06 09:17:00
RBN DX de BA7JA-#: 28014.0 E20HHK CW 13 dB 32 WPM CQ 0902Z 2017-10-06 09:02:08
RBN DX de BA7JA-#: 28014.0 E20HHK CW 8 dB 31 WPM CQ 0902Z 2017-10-06 09:02:08
RBN DX de DJ9IE-#: 24912.2 E20HHK CW 16 dB 31 WPM CQ 0900Z 2017-10-06 09:00:12
RBN DX de VU2PTT-#: 24912.1 E20HHK CW 4 dB 32 WPM CQ 0858Z 2017-10-06 08:58:41
DXC DX de E20HHK: 14022.0 AP2NK 5NN fb tks qso 0450Z 2017-10-06 04:50:00
DXC DX de E20HHK: 14190.0 FT3YL Up weak but good ears tks qso 2017-10-05 10:25:00
DXC DX de E20HHK: 18077.0 SV5/DL3DRN tks qso gl gd dx 1504Z 2017-10-04 15:04:00
DXC DX de E20HHK: 21010.0 SV5/DL3DRN tks fer nice short cw qso 2017-10-04 12:23:00
DXC DX de E20HHK: 14225.0 FR4KM/P Big sig in HS tks qso 1240Z 2017-09-30 12:40:00
DXC DX de E20HHK: 21238.0 A61QQ Big sig tks qso 1141Z 2017-09-30 11:41:00
DXC DX de E20HHK: 14290.0 AT7M Up 10 tks qso 1136Z 2017-09-30 11:36:00
RBN DX de JA4ZRK-#: 24897.2 E20HHK CW 6 dB 29 WPM CQ 0836Z 2017-09-30 08:36:59
RBN DX de 3B8CW-#: 24897.2 E20HHK CW 5 dB 29 WPM CQ 0836Z 2017-09-30 08:36:28
RBN DX de BG8NUD-#: 24897.5 E20HHK CW 5 dB 29 WPM CQ 0835Z 2017-09-30 08:35:35
RBN DX de VU2PTT-#: 24897.1 E20HHK CW 11 dB 30 WPM CQ 0835Z 2017-09-30 08:35:22
DXC DX de E20HHK: 21009.0 A61Q/ARS Simplex tks qso 1235Z 2017-09-27 12:35:00
DXC DX de E20HHK: 21292.0 A91ARS Simplex tks qso 1227Z 2017-09-27 12:27:00
DXC DX de E20HHK: 24897.0 HZ72ND Up tks qso 1214Z 2017-09-27 12:14:00
RBN DX de BG8NUD-#: 18084.5 E20HHK CW 7 dB 31 WPM CQ 0410Z 2017-09-26 04:10:20
RBN DX de BD7LLL-#: 18084.2 E20HHK CW 15 dB 31 WPM CQ 0405Z 2017-09-26 04:05:52
RBN DX de BD7JNA-#: 18084.2 E20HHK CW 9 dB 32 WPM CQ 0402Z 2017-09-26 04:02:37
RBN DX de JO1YYP-#: 18084.2 E20HHK CW 19 dB 32 WPM CQ 0402Z 2017-09-26 04:02:27
RBN DX de BG4WOM-#: 18084.20 E20HHK CW 19 dB 32 WPM CQ 0402Z 2017-09-26 04:02:26
DXC DX de E20HHK: 14275.0 A91ARS tks qso 1230Z 2017-09-25 12:30:00
DXC DX de E20HHK: 18143.0 A35W tks fer contact 0533Z 2017-09-25 05:33:00
RBN DX de 9V1RM-#: 18088.1 E20HHK CW 8 dB 30 WPM CQ 0916Z 2017-09-24 09:16:19
RBN DX de JE1SGH-#: 18088.2 E20HHK CW 14 dB 29 WPM CQ 0916Z 2017-09-24 09:16:18
RBN DX de 9V1RM-#: 18088.5 E20HHK CW 7 dB 29 WPM CQ 0915Z 2017-09-24 09:15:50
RBN DX de BD7LLL-#: 18088.2 E20HHK CW 19 dB 29 WPM CQ 0915Z 2017-09-24 09:15:49
RBN DX de BG8NUD-#: 18088.7 E20HHK CW 5 dB 29 WPM CQ 0047Z 2017-09-24 00:47:38
RBN DX de JE1SGH-#: 18088.7 E20HHK CW 17 dB 29 WPM CQ 0047Z 2017-09-24 00:47:38
RBN DX de BD7LLL-#: 18088.7 E20HHK CW 16 dB 29 WPM CQ 0047Z 2017-09-24 00:47:19
DXC DX de RT6C: 14028.7 E20HHK 1438Z 2017-09-23 14:38:00
RBN DX de HB9DCO-#: 14028.7 E20HHK CW 14 dB 30 WPM CQ 1436Z 2017-09-23 14:36:52
RBN DX de BG4GOV-#: 14028.70 E20HHK CW 10 dB 30 WPM CQ 1436Z 2017-09-23 14:36:52
RBN DX de VK4CT-#: 14028.7 E20HHK CW 32 dB 30 WPM CQ 1436Z 2017-09-23 14:36:48
RBN DX de V51YJ-#: 14028.7 E20HHK CW 14 dB 30 WPM CQ 1436Z 2017-09-23 14:36:47
RBN DX de S50ARX-#: 14028.7 E20HHK CW 10 dB 29 WPM CQ 1436Z 2017-09-23 14:36:46
RBN DX de VU2PTT-#: 14028.6 E20HHK CW 36 dB 30 WPM CQ 1436Z 2017-09-23 14:36:46
RBN DX de HB9JCB-#: 14028.7 E20HHK CW 10 dB 29 WPM CQ 1436Z 2017-09-23 14:36:46
RBN DX de GI4DOH-#: 14028.7 E20HHK CW 19 dB 30 WPM CQ 1436Z 2017-09-23 14:36:41
RBN DX de BI4SCC-#: 14028.6 E20HHK CW 18 dB 29 WPM CQ 1436Z 2017-09-23 14:36:41